(344076) = 1998 HJ3

Discovered at Socorro on 1998-04-19 by LINEAR.

Orbit

Orbit type: Apollo
Potentially Hazardous Asteroid
Critical list numbered object.

Note: WebGL enabled browser required.

epoch2023-09-13.0
epoch JD2460200.5
perihelion date2020-12-04.26688
perihelion JD2459187.76688
argument of perihelion (°)94.21319
ascending node (°)223.55595
inclination (°)6.56480
eccentricity0.7462000
perihelion distance (AU)0.5040907
Tisserand w.r.t. Jupiter3.4
ΔV w.r.t. Earth (km/sec)8.8
semimajor axis (AU)1.9861726
mean anomaly (°)356.59345
mean daily motion (°/day)0.35211000
aphelion distance (AU)3.468
period (years)2.8
P-vector [x]0.73593684
P-vector [y]-0.65766346
P-vector [z]-0.16085938
Q-vector [x]0.67245143
Q-vector [y]0.68236366
Q-vector [z]0.28668607
absolute magnitude18.99
phase slope0.15
uncertainty0
referenceMPEC 2024-A141
observations used270
oppositions6
arc length (days)9398
first opposition used1998
last opposition used2024
residual rms (arc-secs)0.68
perturbers coarse indicatorM-v
perturbers precise indicator003Ek
first observation date used1998-04-19.0
last observation date used2024-01-11.0
computer nameMPCLINUX
JD of orbit computation2456249.231192
perihelion JD uncertainty (days)3.7155E-05
argument of perihelion uncertainty (°)3.9794E-05
ascending node uncertainty (°)4.3648E-05
inclination uncertainty (°)9.4874E-06
eccentricity uncertainty 3.9080E-08
perihelion distance uncertainty (AU)7.4187E-08
Minimum Orbit Intersection Distances (in AU)
for orbit epoch: 2460200.5, reference: E2024-AE1
Mercury0.13095
Venus0.01967
Earth0.01111
Mars0.13696
Jupiter1.93911
Saturn5.77465
Uranus15.0827
Neptune26.937

Observations

273 total observations over interval: 1998 04 19.13908 – 2024 01 11.225782
These data are available for download (format description).

Date (UT) J2000 RA J2000 Dec Magn Location Ref
1998 04 19.13908 11 22 29.94 -05 44 58.9 19.3   704 – Lincoln Laboratory ETS, New Mexico MPS 1065
1998 04 19.15930 11 22 25.33 -05 44 19.0 20.1   704 – Lincoln Laboratory ETS, New Mexico MPS 1065
1998 04 19.17946 11 22 20.92 -05 43 45.1 19.7   704 – Lincoln Laboratory ETS, New Mexico MPS 1065
1998 04 19.19961 11 22 16.11 -05 43 05.2 19.6   704 – Lincoln Laboratory ETS, New Mexico MPS 1065
1998 04 19.21999 11 22 11.48 -05 42 26.7 19.6   704 – Lincoln Laboratory ETS, New Mexico MPS 1065
1998 04 20.51842 11 17 20.85 -05 01 43.5 19.0 V 402 – Dynic Astronomical Observatory MPS 1065
1998 04 20.52051 11 17 20.46 -05 01 41.7   402 – Dynic Astronomical Observatory MPS 1065
1998 04 20.52259 11 17 19.91 -05 01 36.4   402 – Dynic Astronomical Observatory MPS 1065
1998 04 20.83931 11 16 08.63 -04 51 33.1 19.5 V 557 – Ondrejov MPS 1065
1998 04 20.84128 11 16 08.20 -04 51 29.8   557 – Ondrejov MPS 1065
1998 04 20.85264 11 16 05.57 -04 51 06.5 18.2 R 046 – Klet Observatory, Ceske Budejovice MPS 1065
1998 04 20.85547 11 16 04.91 -04 51 01.3   046 – Klet Observatory, Ceske Budejovice MPS 1065
1998 04 20.85703 11 16 04.58 -04 50 58.1   046 – Klet Observatory, Ceske Budejovice MPS 1065
1998 04 21.14853 11 14 58.99 -04 41 34.1 18.8   704 – Lincoln Laboratory ETS, New Mexico MPS 1065
1998 04 21.15207 11 14 58.20 -04 41 24.9 18.9   704 – Lincoln Laboratory ETS, New Mexico MPS 1065
1998 04 21.15543 11 14 57.45 -04 41 20.3 18.9   704 – Lincoln Laboratory ETS, New Mexico MPS 1065
1998 04 21.15878 11 14 56.59 -04 41 11.0 19.1   704 – Lincoln Laboratory ETS, New Mexico MPS 1065
1998 04 21.16235 11 14 55.71 -04 41 06.4 19.2   704 – Lincoln Laboratory ETS, New Mexico MPS 1065
1998 04 21.16571 11 14 55.09 -04 40 59.9 19.1   704 – Lincoln Laboratory ETS, New Mexico MPS 1065
1998 04 21.16906 11 14 54.19 -04 40 52.5 19.1   704 – Lincoln Laboratory ETS, New Mexico MPS 1065
1998 04 21.17242 11 14 53.64 -04 40 44.0 19.3   704 – Lincoln Laboratory ETS, New Mexico MPS 1065
1998 04 21.17577 11 14 52.66 -04 40 38.6 19.3   704 – Lincoln Laboratory ETS, New Mexico MPS 1065
1998 04 21.83909 11 12 22.23 -04 19 10.8 18.1 R 046 – Klet Observatory, Ceske Budejovice MPS 1065
1998 04 21.84020 11 12 21.99 -04 19 08.9   046 – Klet Observatory, Ceske Budejovice MPS 1065
1998 04 21.84132 11 12 21.69 -04 19 07.4   046 – Klet Observatory, Ceske Budejovice MPS 1065
1998 04 21.84250 11 12 21.41 -04 19 05.1   046 – Klet Observatory, Ceske Budejovice MPS 1065
1998 04 22.15183 11 11 11.23 -04 08 52.8 19.0   704 – Lincoln Laboratory ETS, New Mexico MPS 1065
1998 04 22.17067 11 11 06.73 -04 08 15.7 19.8   704 – Lincoln Laboratory ETS, New Mexico MPS 1065
1998 04 22.18943 11 11 02.53 -04 07 38.6 19.4   704 – Lincoln Laboratory ETS, New Mexico MPS 1065
1998 04 22.22713 11 10 53.46 -04 06 24.4 19.9   704 – Lincoln Laboratory ETS, New Mexico MPS 1065
1998 04 22.81113 11 08 40.88 -03 47 07.7   046 – Klet Observatory, Ceske Budejovice MPS 1065
1998 04 22.81514 11 08 40.01 -03 47 00.0   046 – Klet Observatory, Ceske Budejovice MPS 1065
1998 04 22.81628 11 08 39.78 -03 46 58.0 19.1 V 046 – Klet Observatory, Ceske Budejovice MPS 1065
1998 04 22.81743 11 08 39.40 -03 46 54.0   046 – Klet Observatory, Ceske Budejovice MPS 1065
1998 04 22.81903 11 08 39.06 -03 46 51.9   046 – Klet Observatory, Ceske Budejovice MPS 1065
1998 04 22.84544 11 08 32.81 -03 45 58.1   557 – Ondrejov MPS 1065
1998 04 22.84707 11 08 32.43 -03 45 56.2 19.3 V 557 – Ondrejov MPS 1065
1998 04 22.91955 11 08 15.40 -03 43 30.7   118 – Astronomical and Geophysical Observatory, Modra MPS 1065
1998 04 22.92160 11 08 15.06 -03 43 26.9   118 – Astronomical and Geophysical Observatory, Modra MPS 1065
1998 04 22.92384 11 08 14.43 -03 43 22.0   118 – Astronomical and Geophysical Observatory, Modra MPS 1065
1998 04 23.82319 11 04 48.78 -03 13 09.5   557 – Ondrejov MPS 1065
1998 04 23.82483 11 04 48.49 -03 13 06.3   557 – Ondrejov MPS 1065
1998 04 23.82646 11 04 48.09 -03 13 03.5 19.0 V 557 – Ondrejov MPS 1065
1998 04 23.84075 11 04 44.76 -03 12 33.4 19.1 V 046 – Klet Observatory, Ceske Budejovice MPS 1065
1998 04 23.84189 11 04 44.47 -03 12 30.0   046 – Klet Observatory, Ceske Budejovice MPS 1065
1998 04 23.84324 11 04 44.15 -03 12 28.0   046 – Klet Observatory, Ceske Budejovice MPS 1065
1998 04 23.95081 11 04 18.80 -03 08 49.1   118 – Astronomical and Geophysical Observatory, Modra MPS 1065
1998 04 23.95279 11 04 18.41 -03 08 45.7   118 – Astronomical and Geophysical Observatory, Modra MPS 1065
1998 04 25.94475 10 56 38.96 -02 00 09.8   118 – Astronomical and Geophysical Observatory, Modra MPS 1065
1998 04 25.95041 10 56 37.63 -01 59 58.0   118 – Astronomical and Geophysical Observatory, Modra MPS 1065
1998 04 25.95299 10 56 37.00 -01 59 52.0   118 – Astronomical and Geophysical Observatory, Modra MPS 1065
1998 05 01.90296 10 33 37.03 +01 34 26.5   557 – Ondrejov MPS 1065
1998 05 01.90530 10 33 36.48 +01 34 32.1   557 – Ondrejov MPS 1065
1998 05 01.91346 10 33 34.57 +01 34 49.6 18.8 V 557 – Ondrejov MPS 1065
2009 11 19.36566 07 08 13.24 +10 04 15.5 18.0   704 – Lincoln Laboratory ETS, New Mexico MPS 303166
2009 11 19.39025 07 07 58.53 +10 04 24.7 18.1   704 – Lincoln Laboratory ETS, New Mexico MPS 303166
2009 11 19.40255 07 07 51.14 +10 04 28.4 18.1   704 – Lincoln Laboratory ETS, New Mexico MPS 303166
2009 11 19.41488 07 07 43.72 +10 04 33.1 18.6   704 – Lincoln Laboratory ETS, New Mexico MPS 303166
2009 11 20.15870 07 00 34.07 +10 08 14.8 17.2 R 118 – Astronomical and Geophysical Observatory, Modra MPS 303166
2009 11 20.15936 07 00 33.70 +10 08 14.8 17.2 R 118 – Astronomical and Geophysical Observatory, Modra MPS 303166
2009 11 20.16002 07 00 33.30 +10 08 15.0 17.0 R 118 – Astronomical and Geophysical Observatory, Modra MPS 303166
2009 11 20.16068 07 00 32.94 +10 08 15.2 17.2 R 118 – Astronomical and Geophysical Observatory, Modra MPS 303166
2009 11 20.16266 07 00 31.80 +10 08 15.7 16.9 R 118 – Astronomical and Geophysical Observatory, Modra MPS 303166
2009 11 20.28006 06 59 28.01 +10 08 56.3 17.2 R H01 – Magdalena Ridge Observatory, Socorro MPS 303166
2009 11 20.28560 06 59 24.84 +10 08 58.0 17.2 R H01 – Magdalena Ridge Observatory, Socorro MPS 303166
2009 11 20.29273 06 59 20.77 +10 09 00.2 17.2 R H01 – Magdalena Ridge Observatory, Socorro MPS 303166
2009 11 20.29792 06 59 17.16 +10 09 01.6 17.7 R 850 – Cordell-Lorenz Observatory, Sewanee MPS 303166
2009 11 20.29797 06 59 17.77 +10 09 01.8 17.1 R H01 – Magdalena Ridge Observatory, Socorro MPS 303166
2009 11 20.30776 06 59 11.51 +10 09 03.9 17.4 R 850 – Cordell-Lorenz Observatory, Sewanee MPS 303166
2009 11 20.31735 06 59 05.93 +10 09 07.9 17.4 R 850 – Cordell-Lorenz Observatory, Sewanee MPS 303166
2009 11 20.33621 06 58 55.12 +10 09 13.4 17.6 R 850 – Cordell-Lorenz Observatory, Sewanee MPS 303166
2009 11 20.34566 06 58 49.65 +10 09 16.6 17.4 R 850 – Cordell-Lorenz Observatory, Sewanee MPS 303166
2009 11 20.35472 06 58 45.39 +10 09 19.6 17.5 R 854 – Sabino Canyon Observatory, Tucson MPS 303166
2009 11 20.35778 06 58 43.66 +10 09 20.8 17.4 R 854 – Sabino Canyon Observatory, Tucson MPS 303166
2009 11 20.36059 06 58 41.94 +10 09 21.2 17.8   704 – Lincoln Laboratory ETS, New Mexico MPS 304730
2009 11 20.36084 06 58 41.91 +10 09 21.5 17.5 R 854 – Sabino Canyon Observatory, Tucson MPS 303166
2009 11 20.37291 06 58 34.80 +10 09 24.0 17.8   704 – Lincoln Laboratory ETS, New Mexico MPS 304730
2009 11 20.37666 06 58 31.97 +10 09 22.5 18.0 V H21 – Astronomical Research Observatory, Westfield MPS 303166
2009 11 20.38021 06 58 29.92 +10 09 23.3 18.1 V H21 – Astronomical Research Observatory, Westfield MPS 303166
2009 11 20.38096 06 58 29.49 +10 09 23.6 18.0 V H21 – Astronomical Research Observatory, Westfield MPS 303166
2009 11 20.38303 06 58 28.31 +10 09 24.2 18.0 V H21 – Astronomical Research Observatory, Westfield MPS 303166
2009 11 20.38525 06 58 27.74 +10 09 27.4 18.0   704 – Lincoln Laboratory ETS, New Mexico MPS 304730
2009 11 20.39759 06 58 20.66 +10 09 31.6 17.8   704 – Lincoln Laboratory ETS, New Mexico MPS 304730
2009 11 20.40994 06 58 13.57 +10 09 35.5 17.7   704 – Lincoln Laboratory ETS, New Mexico MPS 304730
